{"data":{"norad_id":63727,"epoch":"2026-09-20T19:50:56.823648Z","epoch_age_seconds":176452,"freshness":"STALE","line1":"1 63727U 25088D   26263.82704657  .00000358  00000+0  76003-4 0  9991","line2":"2 63727  51.9016 307.7646 0000379  67.9893 292.1110 14.79930655 76652","mean_motion":14.79930655,"eccentricity":3.79e-5,"inclination_deg":51.9016,"raan_deg":307.7646,"arg_perigee_deg":67.9893,"mean_anomaly_deg":292.111,"bstar":7.6003e-5,"rev_number":7665,"period_min":97.301856349479,"perigee_km":629.27744069547,"apogee_km":629.80862284188,"semimajor_km":7007.6800317687,"source":"CELESTRAK","updated_at":"2026-09-22T09:00:29.315762Z"}}